Weather History for KBYY - March, 2013

Change the Weather History Date:

Sunday, March 17, 2013

  Actual Average (KLBX) Record (KLBX)
Temperature  
Mean Temperature 72 °F -  
Max Temperature 80 °F 69 °F 81 °F (2002)
Min Temperature 63 °F 53 °F 39 °F (2005)
Cooling Degree Days 6    
Growing Degree Days 22 (Base 50)    
Moisture  
Dew Point 67 °F    
Average Humidity 89    
Maximum Humidity 100    
Minimum Humidity 62    
Precipitation  
Precipitation 0.00 in - - ()
Sea Level Pressure  
Sea Level Pressure 29.80 in    
Wind  
Wind Speed 9 mph (SSE)    
Max Wind Speed 22 mph    
Max Gust Speed 28 mph    
Visibility 8 miles    
Events      
Averages and records for this station are not official NWS values.
T = Trace of Precipitation, MM = Missing Value Source: NWS Daily Summary

Daily Weather History Graph

Daily Weather History Graph

Search for Another Location

Airport or City:

Trip Planner

Search our weather history database for the weather conditions in past years. The results will help you decide how hot, cold, wet, or windy it might be!

Date:

Astronomy

Mar. 17, 2013 Rise Set
Actual Time 7:30 AM CDT 7:33 PM CDT
Civil Twilight 7:06 AM CDT 7:56 PM CDT
Nautical Twilight 6:39 AM CDT 8:24 PM CDT
Astronomical Twilight 6:11 AM CDT 8:52 PM CDT
Moon 11:09 AM CDT (3/17) 12:17 AM CDT (3/17)
Length of Visible Light 12h 50m
Length of Day
12h 02m
Waxing Crescent, 31% of the Moon is Illuminated
Mar 17
Waxing Crescent
Mar 19
First Quarter
Mar 27
Full
Apr 2
Last Quarter
Apr 10
New

Hourly Weather History & Observations

Time (CDT) Temp. Heat Index Dew Point Humidity Pressure Visibility Wind Dir Wind Speed Gust Speed Precip Events Conditions
12:15 AM 65.8 °F - 65.8 °F 100% 29.88 in 10.0 mi SE 8.1 mph - N/A   Clear
12:35 AM 65.8 °F - 65.8 °F 100% 29.87 in 10.0 mi SSE 6.9 mph - N/A   Clear
12:55 AM 65.7 °F - 65.7 °F 100% 29.87 in 10.0 mi SSE 5.8 mph - N/A   Clear
1:15 AM 65.3 °F - 65.3 °F 100% 29.87 in 10.0 mi SSE 4.6 mph - N/A   Clear
1:35 AM 64.9 °F - 64.9 °F 100% 29.86 in 10.0 mi SSE 5.8 mph - N/A   Clear
1:55 AM 64.8 °F - 64.8 °F 100% 29.85 in 10.0 mi SSE 6.9 mph - N/A   Clear
2:15 AM 64.8 °F - 64.8 °F 100% 29.85 in 10.0 mi SSE 5.8 mph - N/A   Clear
2:35 AM 64.8 °F - 64.8 °F 100% 29.84 in 10.0 mi SSE 4.6 mph - N/A   Clear
2:55 AM 64.6 °F - 64.6 °F 100% 29.83 in 10.0 mi SE 8.1 mph - N/A   Clear
3:15 AM 64.6 °F - 64.6 °F 100% 29.82 in 10.0 mi SSE 6.9 mph - N/A   Clear
3:35 AM 64.9 °F - 64.9 °F 100% 29.82 in 10.0 mi SSE 8.1 mph - N/A   Clear
3:55 AM 65.1 °F - 65.1 °F 100% 29.81 in 7.0 mi SSE 5.8 mph - N/A   Clear
4:15 AM 64.8 °F - 64.8 °F 100% 29.81 in 7.0 mi SSE 6.9 mph - N/A   Clear
4:35 AM 64.8 °F - 64.8 °F 100% 29.81 in 7.0 mi SSE 5.8 mph - N/A   Clear
4:55 AM 64.8 °F - 64.8 °F 100% 29.80 in 7.0 mi SSE 4.6 mph - N/A   Clear
5:15 AM 64.6 °F - 64.6 °F 100% 29.80 in 7.0 mi SSE 5.8 mph - N/A   Clear
5:35 AM 64.6 °F - 64.6 °F 100% 29.81 in 7.0 mi SSE 4.6 mph - N/A   Clear
5:55 AM 64.4 °F - 64.4 °F 100% 29.81 in 7.0 mi SSE 3.5 mph - N/A   Scattered Clouds
6:15 AM 64.0 °F - 64.0 °F 100% 29.81 in 7.0 mi SSE 3.5 mph - N/A   Scattered Clouds
6:35 AM 63.7 °F - 63.7 °F 100% 29.81 in 5.0 mi SSE 4.6 mph - N/A   Scattered Clouds
6:55 AM 63.5 °F - 63.5 °F 100% 29.82 in 4.0 mi SE 5.8 mph - N/A   Clear
7:15 AM 64.4 °F - 64.4 °F 100% 29.82 in 5.0 mi SE 6.9 mph - N/A   Clear
7:35 AM 64.8 °F - 64.8 °F 100% 29.82 in 5.0 mi SE 5.8 mph - N/A   Clear
7:55 AM 65.1 °F - 65.1 °F 100% 29.82 in 4.0 mi SE 5.8 mph - N/A   Clear
8:15 AM 65.7 °F - 65.7 °F 100% 29.83 in 4.0 mi SE 6.9 mph - N/A   Clear
8:35 AM 66.9 °F - 66.9 °F 100% 29.83 in 5.0 mi SSE 6.9 mph - N/A   Clear
8:55 AM 68.4 °F - 68.4 °F 100% 29.84 in 5.0 mi SSE 6.9 mph - N/A   Clear
9:15 AM 69.8 °F - 69.8 °F 100% 29.83 in 7.0 mi SSE 9.2 mph - N/A   Clear
9:35 AM 71.2 °F - 71.2 °F 100% 29.83 in 7.0 mi SSE 10.4 mph - N/A   Clear
9:55 AM 73.4 °F - 72.9 °F 98% 29.83 in 10.0 mi SSE 13.8 mph 18.4 mph N/A   Clear
10:15 AM 74.8 °F - 71.2 °F 88% 29.84 in 10.0 mi SSE 16.1 mph 21.9 mph N/A   Scattered Clouds
10:35 AM 76.1 °F - 69.1 °F 79% 29.84 in 10.0 mi South 18.4 mph 23.0 mph N/A   Mostly Cloudy
10:55 AM 77.0 °F - 66.9 °F 71% 29.85 in 10.0 mi South 19.6 mph 25.3 mph N/A   Overcast
11:15 AM 76.3 °F - 66.4 °F 71% 29.85 in 10.0 mi South 17.3 mph 23.0 mph N/A   Overcast
11:35 AM 76.6 °F - 66.0 °F 70% 29.84 in 10.0 mi South 19.6 mph 27.6 mph N/A   Overcast
11:55 AM 77.5 °F - 66.4 °F 68% 29.84 in 10.0 mi South 17.3 mph - N/A   Overcast
12:15 PM 77.7 °F - 66.6 °F 68% 29.83 in 10.0 mi South 19.6 mph 25.3 mph N/A   Overcast
12:35 PM 77.9 °F - 66.6 °F 68% 29.83 in 10.0 mi South 21.9 mph 27.6 mph N/A   Overcast
12:55 PM 78.3 °F - 66.0 °F 66% 29.83 in 10.0 mi South 19.6 mph 24.2 mph N/A   Overcast
1:15 PM 78.8 °F - 66.2 °F 65% 29.82 in 10.0 mi South 20.7 mph - N/A   Overcast
1:35 PM 79.2 °F - 66.2 °F 64% 29.81 in 10.0 mi South 20.7 mph 25.3 mph N/A   Overcast
1:55 PM 80.2 °F 82.5 °F 66.6 °F 63% 29.80 in 10.0 mi South 16.1 mph 24.2 mph N/A   Overcast
2:15 PM 80.2 °F 82.3 °F 66.2 °F 62% 29.79 in 10.0 mi South 16.1 mph - N/A   Mostly Cloudy
2:35 PM 79.5 °F - 66.0 °F 63% 29.78 in 10.0 mi South 18.4 mph 24.2 mph N/A   Mostly Cloudy
2:55 PM 80.4 °F 82.6 °F 66.4 °F 62% 29.77 in 10.0 mi South 18.4 mph 23.0 mph N/A   Mostly Cloudy
3:15 PM 79.9 °F - 66.6 °F 64% 29.75 in 10.0 mi South 16.1 mph 21.9 mph N/A   Mostly Cloudy
3:35 PM 79.0 °F - 66.7 °F 66% 29.75 in 10.0 mi South 15.0 mph 19.6 mph N/A   Overcast
3:55 PM 78.8 °F - 66.7 °F 66% 29.74 in 10.0 mi South 16.1 mph - N/A   Mostly Cloudy
4:15 PM 77.9 °F - 67.6 °F 71% 29.74 in 7.0 mi SSE 15.0 mph 21.9 mph N/A   Overcast
4:35 PM 77.5 °F - 67.8 °F 72% 29.73 in 10.0 mi SSE 15.0 mph 20.7 mph N/A   Overcast
4:55 PM 77.2 °F - 67.6 °F 72% 29.72 in 7.0 mi SSE 16.1 mph 23.0 mph N/A   Mostly Cloudy
5:15 PM 77.2 °F - 67.8 °F 73% 29.73 in 10.0 mi South 15.0 mph 18.4 mph N/A   Mostly Cloudy
5:35 PM 75.7 °F - 67.6 °F 76% 29.73 in 10.0 mi SSE 17.3 mph 21.9 mph N/A   Overcast
5:55 PM 75.2 °F - 68.0 °F 78% 29.73 in 7.0 mi SSE 17.3 mph - N/A   Overcast
6:15 PM 75.0 °F - 68.0 °F 79% 29.73 in 10.0 mi SSE 15.0 mph - N/A   Mostly Cloudy
6:35 PM 74.5 °F - 68.0 °F 80% 29.73 in 10.0 mi SSE 16.1 mph 20.7 mph N/A   Mostly Cloudy
6:55 PM 73.9 °F - 68.0 °F 82% 29.73 in 10.0 mi SE 13.8 mph - N/A   Mostly Cloudy
7:15 PM 72.9 °F - 68.0 °F 85% 29.73 in 7.0 mi SSE 11.5 mph 18.4 mph N/A   Mostly Cloudy
7:35 PM 72.0 °F - 68.0 °F 87% 29.73 in 7.0 mi SSE 8.1 mph 16.1 mph N/A   Scattered Clouds
7:55 PM 71.1 °F - 69.8 °F 96% 29.73 in 7.0 mi SE 9.2 mph - N/A   Scattered Clouds
8:15 PM 70.7 °F - 70.7 °F 100% 29.74 in 7.0 mi SE 9.2 mph - N/A   Mostly Cloudy
8:35 PM 70.9 °F - 70.9 °F 100% 29.75 in 7.0 mi SE 8.1 mph - N/A   Overcast
8:55 PM 69.8 °F - 69.8 °F 100% 29.75 in 10.0 mi SE 9.2 mph - N/A   Overcast
9:15 PM 71.1 °F - 71.1 °F 100% 29.75 in 7.0 mi SE 6.9 mph - N/A   Overcast
9:35 PM 70.9 °F - 70.9 °F 100% 29.75 in 7.0 mi SE 9.2 mph - N/A   Mostly Cloudy
9:55 PM 70.9 °F - 70.9 °F 100% 29.76 in 7.0 mi SE 8.1 mph - N/A   Overcast
10:15 PM 70.9 °F - 70.9 °F 100% 29.77 in 7.0 mi SE 6.9 mph - N/A   Overcast
10:35 PM 71.1 °F - 71.1 °F 100% 29.77 in 7.0 mi SE 5.8 mph - N/A   Overcast
10:55 PM 71.2 °F - 71.2 °F 100% 29.77 in 7.0 mi SE 8.1 mph - N/A   Overcast
11:15 PM 71.1 °F - 71.1 °F 100% 29.77 in 7.0 mi SE 8.1 mph - N/A   Overcast
11:35 PM 71.1 °F - 71.1 °F 100% 29.77 in 7.0 mi SE 9.2 mph - N/A   Overcast
11:55 PM 71.1 °F - 71.1 °F 100% 29.76 in 7.0 mi SE 10.4 mph - N/A   Overcast